GFSNE_prec_precacc24_288.txt.gz
Total_Precipitation_Accumulation
0.00 0.00 0.00 0.00 0.00 0.00 0.00 0.00 0.00 0.00 0.00 0.00 0.00 0.01 0.00 0.00 0.00 0.00 0.00 0.00 0.03 0.07 0.10 0.08 0.02 0.00 0.00 0.00 0.01 0.00 0.00 0.00 0.00 0.00 0.01 0.01 0.04 0.06
0.00 0.00 0.00 0.00 0.00 0.00 0.00 0.00 0.00 0.00 0.00 0.00 0.00 0.00 0.00 0.00 0.00 0.00 0.00 0.00 0.01 0.06 0.08 0.05 0.03 0.02 0.01 0.00 0.01 0.01 0.01 0.00 0.00 0.00 0.01 0.02 0.02 0.03
0.00 0.00 0.00 0.00 0.00 0.00 0.00 0.00 0.00 0.00 0.00 0.00 0.00 0.00 0.00 0.00 0.00 0.00 0.01 0.01 0.02 0.09 0.21 0.21 0.10 0.03 0.01 0.01 0.01 0.01 0.00 0.00 0.00 0.00 0.00 0.01 0.01 0.00
0.00 0.02 0.02 0.02 0.01 0.01 0.02 0.02 0.02 0.02 0.04 0.03 0.02 0.01 0.02 0.02 0.03 0.05 0.08 0.10 0.10 0.15 0.42 0.51 0.42 0.14 0.06 0.04 0.02 0.01 0.00 0.00 0.00 0.00 0.00 0.00 0.00 0.00
0.02 0.03 0.05 0.07 0.06 0.06 0.07 0.08 0.09 0.10 0.11 0.14 0.14 0.09 0.09 0.10 0.11 0.14 0.13 0.13 0.14 0.17 0.46 0.62 0.54 0.36 0.13 0.05 0.02 0.01 0.00 0.00 0.00 0.00 0.00 0.00 0.00 0.00
0.05 0.07 0.12 0.17 0.18 0.20 0.23 0.21 0.18 0.17 0.17 0.22 0.31 0.26 0.25 0.28 0.25 0.22 0.22 0.21 0.18 0.15 0.23 0.75 0.75 0.46 0.27 0.08 0.03 0.00 0.00 0.00 0.00 0.00 0.00 0.00 0.00 0.00
0.18 0.19 0.22 0.31 0.34 0.28 0.24 0.22 0.23 0.21 0.18 0.20 0.27 0.21 0.20 0.25 0.24 0.23 0.24 0.23 0.27 0.26 0.22 0.41 0.30 0.30 0.21 0.12 0.05 0.00 0.00 0.00 0.00 0.00 0.00 0.00 0.00 0.00
0.25 0.26 0.32 0.42 0.37 0.36 0.32 0.27 0.24 0.24 0.21 0.19 0.20 0.18 0.15 0.16 0.20 0.23 0.23 0.23 0.24 0.28 0.28 0.42 0.31 0.28 0.19 0.09 0.03 0.00 0.00 0.00 0.00 0.00 0.00 0.00 0.00 0.00
0.21 0.25 0.31 0.40 0.43 0.30 0.26 0.22 0.18 0.15 0.14 0.14 0.16 0.13 0.12 0.14 0.21 0.24 0.21 0.23 0.23 0.24 0.31 0.50 0.46 0.41 0.25 0.07 0.03 0.00 0.00 0.00 0.00 0.00 0.00 0.00 0.00 0.00
0.28 0.28 0.31 0.35 0.38 0.30 0.21 0.16 0.11 0.09 0.08 0.09 0.10 0.08 0.11 0.15 0.16 0.20 0.22 0.30 0.41 0.44 0.35 0.36 0.42 0.35 0.17 0.05 0.02 0.00 0.00 0.00 0.00 0.00 0.00 0.00 0.00 0.00
0.42 0.43 0.44 0.39 0.47 0.32 0.23 0.17 0.13 0.12 0.13 0.14 0.15 0.17 0.19 0.22 0.25 0.22 0.21 0.24 0.36 0.33 0.31 0.24 0.34 0.30 0.21 0.08 0.02 0.00 0.00 0.00 0.00 0.00 0.00 0.00 0.00 0.00
0.36 0.37 0.47 0.50 0.53 0.32 0.18 0.12 0.11 0.12 0.11 0.14 0.14 0.15 0.16 0.16 0.20 0.19 0.20 0.23 0.22 0.28 0.25 0.26 0.29 0.18 0.14 0.11 0.05 0.01 0.00 0.00 0.00 0.00 0.00 0.00 0.00 0.00
0.25 0.24 0.26 0.35 0.36 0.28 0.23 0.13 0.08 0.08 0.11 0.11 0.12 0.14 0.16 0.19 0.19 0.19 0.18 0.22 0.24 0.19 0.13 0.16 0.17 0.10 0.04 0.05 0.05 0.01 0.00 0.00 0.00 0.00 0.00 0.00 0.00 0.00
0.24 0.18 0.20 0.24 0.26 0.24 0.18 0.11 0.07 0.05 0.06 0.06 0.08 0.11 0.14 0.17 0.19 0.21 0.23 0.24 0.24 0.15 0.18 0.14 0.10 0.04 0.03 0.04 0.01 0.00 0.00 0.00 0.00 0.00 0.00 0.00 0.00 0.00
0.19 0.16 0.18 0.20 0.27 0.22 0.14 0.09 0.05 0.04 0.05 0.06 0.07 0.08 0.09 0.11 0.14 0.13 0.15 0.14 0.11 0.10 0.12 0.09 0.06 0.07 0.04 0.01 0.00 0.00 0.00 0.00 0.00 0.00 0.00 0.00 0.00 0.00
0.15 0.11 0.12 0.23 0.28 0.24 0.14 0.06 0.03 0.04 0.04 0.04 0.05 0.05 0.06 0.06 0.07 0.08 0.07 0.05 0.03 0.05 0.07 0.03 0.03 0.03 0.01 0.00 0.00 0.00 0.00 0.00 0.00 0.00 0.00 0.00 0.00 0.00
0.11 0.06 0.09 0.16 0.23 0.18 0.13 0.08 0.03 0.04 0.04 0.03 0.04 0.04 0.03 0.03 0.03 0.03 0.02 0.02 0.03 0.05 0.03 0.00 0.00 0.00 0.00 0.00 0.00 0.00 0.00 0.00 0.00 0.00 0.00 0.00 0.00 0.00
0.10 0.03 0.08 0.16 0.15 0.13 0.11 0.08 0.03 0.03 0.03 0.03 0.04 0.05 0.05 0.03 0.03 0.05 0.04 0.03 0.02 0.02 0.00 0.00 0.00 0.00 0.00 0.00 0.00 0.00 0.00 0.00 0.00 0.00 0.00 0.00 0.00 0.00
0.05 0.02 0.05 0.11 0.12 0.12 0.11 0.07 0.06 0.04 0.04 0.05 0.06 0.09 0.09 0.10 0.09 0.06 0.01 0.00 0.00 0.00 0.00 0.00 0.00 0.00 0.00 0.00 0.00 0.00 0.00 0.00 0.00 0.00 0.00 0.00 0.00 0.00
0.10 0.04 0.03 0.04 0.06 0.07 0.06 0.05 0.06 0.05 0.06 0.08 0.09 0.10 0.10 0.09 0.08 0.05 0.01 0.00 0.00 0.00 0.00 0.00 0.00 0.00 0.00 0.00 0.00 0.00 0.00 0.00 0.00 0.00 0.00 0.00 0.00 0.00
0.12 0.07 0.04 0.02 0.02 0.02 0.02 0.02 0.02 0.03 0.05 0.07 0.08 0.08 0.09 0.08 0.07 0.05 0.01 0.00 0.00 0.00 0.00 0.00 0.00 0.00 0.00 0.00 0.00 0.00 0.00 0.00 0.00 0.00 0.00 0.00 0.00 0.00
0.12 0.08 0.06 0.06 0.04 0.02 0.02 0.02 0.02 0.04 0.05 0.06 0.06 0.06 0.07 0.06 0.05 0.04 0.01 0.00 0.00 0.00 0.00 0.00 0.00 0.00 0.00 0.00 0.00 0.00 0.00 0.00 0.00 0.00 0.00 0.00 0.00 0.00
0.12 0.08 0.08 0.08 0.07 0.06 0.04 0.03 0.02 0.01 0.01 0.03 0.03 0.03 0.03 0.03 0.03 0.02 0.01 0.00 0.00 0.00 0.00 0.00 0.00 0.00 0.00 0.00 0.00 0.00 0.00 0.00 0.00 0.00 0.00 0.00 0.00 0.00

GFSNE_prec_precacc24_291.txt.gz
Total_Precipitation_Accumulation
0.00 0.00 0.00 0.00 0.00 0.00 0.00 0.00 0.00 0.00 0.00 0.00 0.00 0.01 0.00 0.00 0.00 0.00 0.00 0.00 0.03 0.06 0.09 0.08 0.03 0.01 0.01 0.00 0.01 0.00 0.00 0.00 0.00 0.00 0.00 0.01 0.01 0.04
0.00 0.00 0.00 0.00 0.00 0.00 0.00 0.00 0.00 0.00 0.00 0.00 0.00 0.00 0.00 0.00 0.00 0.00 0.00 0.00 0.01 0.06 0.07 0.05 0.03 0.03 0.03 0.01 0.01 0.01 0.01 0.00 0.00 0.00 0.01 0.01 0.02 0.04
0.00 0.00 0.00 0.00 0.00 0.00 0.00 0.00 0.00 0.00 0.00 0.00 0.00 0.01 0.01 0.01 0.00 0.00 0.01 0.01 0.02 0.09 0.18 0.19 0.12 0.06 0.03 0.01 0.01 0.01 0.00 0.00 0.00 0.00 0.00 0.00 0.01 0.01
0.00 0.00 0.00 0.00 0.00 0.01 0.02 0.02 0.02 0.02 0.05 0.05 0.03 0.03 0.04 0.04 0.03 0.05 0.08 0.10 0.10 0.14 0.40 0.47 0.46 0.19 0.07 0.04 0.02 0.01 0.00 0.00 0.00 0.00 0.00 0.00 0.00 0.00
0.00 0.00 0.00 0.02 0.04 0.06 0.08 0.09 0.10 0.11 0.14 0.18 0.17 0.11 0.14 0.14 0.13 0.15 0.13 0.13 0.14 0.16 0.44 0.58 0.55 0.48 0.24 0.11 0.03 0.01 0.00 0.00 0.00 0.00 0.00 0.00 0.00 0.00
0.04 0.04 0.06 0.09 0.13 0.16 0.22 0.22 0.21 0.22 0.26 0.31 0.38 0.30 0.30 0.32 0.28 0.23 0.23 0.21 0.18 0.14 0.21 0.74 0.75 0.55 0.44 0.14 0.04 0.00 0.00 0.00 0.00 0.00 0.00 0.00 0.00 0.00
0.15 0.16 0.17 0.25 0.29 0.26 0.24 0.22 0.23 0.26 0.28 0.32 0.37 0.29 0.26 0.29 0.27 0.26 0.26 0.24 0.26 0.25 0.21 0.41 0.30 0.31 0.30 0.17 0.06 0.01 0.00 0.00 0.00 0.00 0.00 0.00 0.00 0.00
0.19 0.19 0.22 0.31 0.29 0.32 0.31 0.29 0.30 0.33 0.33 0.30 0.28 0.22 0.17 0.19 0.21 0.23 0.22 0.21 0.22 0.28 0.28 0.44 0.34 0.29 0.19 0.11 0.07 0.02 0.00 0.00 0.00 0.00 0.00 0.00 0.00 0.00
0.14 0.17 0.22 0.28 0.34 0.28 0.33 0.34 0.31 0.32 0.26 0.23 0.23 0.17 0.14 0.15 0.21 0.24 0.20 0.23 0.23 0.24 0.32 0.55 0.51 0.44 0.32 0.16 0.06 0.01 0.00 0.00 0.00 0.00 0.00 0.00 0.00 0.00
0.21 0.21 0.24 0.26 0.31 0.32 0.31 0.33 0.32 0.30 0.23 0.17 0.16 0.14 0.14 0.16 0.16 0.20 0.23 0.31 0.41 0.45 0.37 0.43 0.51 0.47 0.30 0.12 0.05 0.01 0.00 0.00 0.00 0.00 0.00 0.00 0.00 0.00
0.35 0.35 0.36 0.34 0.46 0.39 0.32 0.31 0.28 0.23 0.20 0.18 0.17 0.19 0.20 0.22 0.25 0.22 0.21 0.24 0.36 0.34 0.34 0.28 0.44 0.43 0.35 0.16 0.04 0.01 0.00 0.00 0.00 0.00 0.00 0.00 0.00 0.00
0.35 0.35 0.45 0.47 0.59 0.48 0.35 0.29 0.26 0.22 0.17 0.16 0.15 0.15 0.16 0.16 0.20 0.19 0.21 0.24 0.24 0.30 0.29 0.32 0.37 0.29 0.27 0.20 0.10 0.03 0.00 0.00 0.00 0.00 0.00 0.00 0.00 0.00
0.26 0.25 0.31 0.42 0.45 0.45 0.41 0.30 0.23 0.18 0.16 0.13 0.12 0.14 0.16 0.19 0.20 0.19 0.19 0.24 0.25 0.20 0.15 0.23 0.27 0.17 0.07 0.10 0.11 0.06 0.00 0.00 0.00 0.00 0.00 0.00 0.00 0.00
0.25 0.27 0.35 0.42 0.45 0.38 0.29 0.20 0.13 0.08 0.06 0.06 0.08 0.11 0.14 0.17 0.19 0.22 0.24 0.26 0.27 0.18 0.22 0.20 0.17 0.07 0.06 0.10 0.05 0.03 0.00 0.00 0.00 0.00 0.00 0.00 0.00 0.00
0.27 0.30 0.34 0.33 0.33 0.27 0.20 0.15 0.07 0.05 0.05 0.06 0.07 0.08 0.09 0.11 0.14 0.13 0.16 0.17 0.16 0.17 0.21 0.16 0.10 0.13 0.12 0.07 0.02 0.00 0.00 0.00 0.00 0.00 0.00 0.00 0.00 0.00
0.23 0.20 0.21 0.30 0.33 0.30 0.19 0.07 0.03 0.04 0.04 0.04 0.05 0.05 0.06 0.06 0.08 0.08 0.08 0.10 0.09 0.13 0.15 0.12 0.13 0.12 0.08 0.04 0.01 0.00 0.00 0.00 0.00 0.00 0.00 0.00 0.00 0.00
0.25 0.13 0.16 0.23 0.28 0.21 0.16 0.09 0.03 0.04 0.04 0.03 0.04 0.04 0.03 0.03 0.03 0.03 0.05 0.08 0.10 0.12 0.10 0.07 0.08 0.09 0.04 0.00 0.00 0.00 0.00 0.00 0.00 0.00 0.00 0.00 0.00 0.00
0.26 0.13 0.13 0.19 0.17 0.15 0.12 0.10 0.04 0.03 0.03 0.03 0.04 0.05 0.05 0.03 0.04 0.06 0.07 0.07 0.07 0.07 0.04 0.03 0.04 0.02 0.00 0.00 0.00 0.00 0.00 0.00 0.00 0.00 0.00 0.00 0.00 0.00
0.16 0.10 0.08 0.11 0.13 0.13 0.12 0.08 0.06 0.04 0.03 0.04 0.06 0.09 0.10 0.10 0.10 0.08 0.04 0.03 0.03 0.03 0.02 0.01 0.01 0.00 0.00 0.00 0.00 0.00 0.00 0.00 0.00 0.00 0.00 0.00 0.00 0.00
0.14 0.06 0.04 0.05 0.06 0.07 0.08 0.05 0.06 0.05 0.05 0.07 0.09 0.11 0.10 0.09 0.08 0.07 0.03 0.03 0.02 0.01 0.00 0.00 0.00 0.00 0.00 0.00 0.00 0.00 0.00 0.00 0.00 0.00 0.00 0.00 0.00 0.00
0.20 0.11 0.04 0.02 0.02 0.03 0.03 0.03 0.02 0.03 0.05 0.07 0.09 0.09 0.09 0.09 0.09 0.07 0.03 0.02 0.01 0.01 0.00 0.00 0.00 0.00 0.00 0.00 0.00 0.00 0.00 0.00 0.00 0.00 0.00 0.00 0.00 0.00
0.18 0.09 0.05 0.05 0.04 0.03 0.02 0.02 0.02 0.04 0.05 0.06 0.07 0.07 0.08 0.08 0.08 0.06 0.02 0.00 0.00 0.01 0.00 0.00 0.00 0.00 0.00 0.00 0.00 0.00 0.00 0.00 0.00 0.00 0.00 0.00 0.00 0.00
0.19 0.12 0.09 0.09 0.08 0.06 0.05 0.03 0.02 0.01 0.01 0.03 0.03 0.04 0.04 0.05 0.06 0.05 0.03 0.00 0.01 0.00 0.00 0.00 0.00 0.00 0.00 0.00 0.00 0.00 0.00 0.00 0.00 0.00 0.00 0.00 0.00 0.00

GFSNE_prec_precacc24_294.txt.gz
Total_Precipitation_Accumulation
0.00 0.00 0.00 0.00 0.00 0.00 0.00 0.00 0.00 0.00 0.00 0.00 0.00 0.00 0.00 0.00 0.00 0.00 0.00 0.00 0.02 0.05 0.07 0.07 0.02 0.01 0.02 0.02 0.01 0.00 0.00 0.00 0.00 0.00 0.00 0.01 0.01 0.04
0.00 0.00 0.00 0.00 0.00 0.00 0.00 0.00 0.00 0.00 0.00 0.00 0.00 0.00 0.00 0.00 0.00 0.00 0.00 0.00 0.01 0.05 0.06 0.04 0.03 0.04 0.05 0.03 0.01 0.00 0.01 0.00 0.00 0.01 0.01 0.01 0.02 0.04
0.00 0.00 0.00 0.00 0.00 0.00 0.00 0.00 0.00 0.00 0.00 0.00 0.00 0.00 0.01 0.01 0.00 0.00 0.01 0.01 0.02 0.08 0.16 0.16 0.12 0.08 0.05 0.03 0.02 0.00 0.00 0.00 0.00 0.00 0.00 0.00 0.01 0.01
0.00 0.00 0.00 0.00 0.00 0.00 0.00 0.00 0.00 0.02 0.04 0.05 0.03 0.02 0.04 0.04 0.05 0.06 0.08 0.10 0.10 0.14 0.37 0.45 0.45 0.20 0.11 0.07 0.03 0.01 0.00 0.00 0.00 0.00 0.00 0.00 0.00 0.00
0.00 0.00 0.00 0.01 0.02 0.02 0.03 0.05 0.07 0.11 0.14 0.18 0.17 0.13 0.16 0.18 0.18 0.19 0.16 0.13 0.13 0.16 0.42 0.57 0.51 0.45 0.27 0.17 0.08 0.04 0.00 0.00 0.00 0.00 0.00 0.00 0.00 0.00
0.04 0.04 0.05 0.07 0.07 0.09 0.14 0.17 0.20 0.24 0.26 0.33 0.43 0.38 0.36 0.40 0.35 0.30 0.27 0.23 0.18 0.12 0.20 0.73 0.73 0.55 0.56 0.31 0.18 0.07 0.00 0.00 0.00 0.00 0.00 0.00 0.00 0.00
0.14 0.15 0.15 0.18 0.23 0.22 0.20 0.16 0.19 0.24 0.26 0.33 0.42 0.35 0.31 0.34 0.36 0.34 0.35 0.31 0.28 0.23 0.18 0.40 0.30 0.31 0.37 0.36 0.13 0.04 0.02 0.00 0.00 0.00 0.00 0.00 0.00 0.00
0.19 0.18 0.19 0.25 0.24 0.28 0.27 0.24 0.24 0.28 0.32 0.35 0.38 0.35 0.26 0.27 0.33 0.38 0.32 0.27 0.25 0.26 0.27 0.43 0.34 0.29 0.20 0.12 0.12 0.05 0.02 0.00 0.00 0.00 0.00 0.00 0.00 0.00
0.14 0.16 0.20 0.23 0.27 0.22 0.27 0.28 0.29 0.35 0.36 0.34 0.37 0.33 0.31 0.32 0.37 0.38 0.29 0.25 0.22 0.23 0.32 0.54 0.53 0.46 0.35 0.21 0.13 0.05 0.02 0.00 0.00 0.00 0.00 0.00 0.00 0.00
0.21 0.20 0.21 0.22 0.24 0.25 0.26 0.31 0.31 0.34 0.34 0.31 0.34 0.34 0.34 0.34 0.29 0.28 0.27 0.33 0.42 0.45 0.37 0.43 0.54 0.55 0.39 0.21 0.15 0.04 0.01 0.00 0.00 0.00 0.00 0.00 0.00 0.00
0.35 0.33 0.33 0.30 0.37 0.32 0.26 0.29 0.29 0.31 0.39 0.42 0.44 0.44 0.38 0.30 0.29 0.24 0.22 0.24 0.37 0.34 0.34 0.29 0.47 0.50 0.47 0.27 0.11 0.03 0.00 0.00 0.00 0.00 0.00 0.00 0.00 0.00
0.35 0.34 0.41 0.40 0.50 0.43 0.30 0.28 0.31 0.31 0.30 0.32 0.31 0.27 0.24 0.20 0.21 0.20 0.21 0.24 0.24 0.31 0.29 0.34 0.40 0.32 0.36 0.29 0.16 0.06 0.01 0.00 0.00 0.00 0.00 0.00 0.00 0.00
0.26 0.25 0.30 0.39 0.41 0.43 0.41 0.38 0.39 0.41 0.39 0.34 0.28 0.23 0.20 0.20 0.20 0.19 0.19 0.24 0.26 0.21 0.16 0.25 0.29 0.20 0.08 0.12 0.17 0.13 0.02 0.00 0.00 0.00 0.00 0.00 0.00 0.00
0.25 0.27 0.34 0.42 0.43 0.42 0.34 0.30 0.23 0.18 0.16 0.12 0.10 0.12 0.14 0.17 0.19 0.22 0.24 0.26 0.27 0.19 0.23 0.21 0.20 0.08 0.06 0.12 0.12 0.11 0.03 0.00 0.00 0.00 0.00 0.00 0.00 0.00
0.28 0.30 0.35 0.32 0.31 0.27 0.23 0.19 0.13 0.08 0.06 0.06 0.07 0.08 0.09 0.11 0.14 0.13 0.16 0.18 0.18 0.20 0.23 0.18 0.11 0.15 0.15 0.10 0.08 0.07 0.03 0.00 0.00 0.00 0.00 0.00 0.00 0.00
0.24 0.22 0.21 0.27 0.29 0.31 0.23 0.13 0.06 0.05 0.04 0.04 0.05 0.05 0.06 0.07 0.08 0.09 0.09 0.10 0.11 0.15 0.19 0.18 0.20 0.18 0.13 0.10 0.06 0.04 0.02 0.00 0.00 0.00 0.00 0.00 0.00 0.00
0.26 0.15 0.15 0.19 0.25 0.22 0.20 0.13 0.04 0.04 0.04 0.03 0.04 0.04 0.04 0.03 0.03 0.04 0.05 0.08 0.11 0.14 0.15 0.15 0.17 0.17 0.12 0.05 0.03 0.02 0.01 0.00 0.00 0.00 0.00 0.00 0.00 0.00
0.27 0.17 0.18 0.21 0.18 0.17 0.15 0.11 0.04 0.03 0.03 0.03 0.04 0.05 0.05 0.03 0.04 0.07 0.07 0.08 0.08 0.11 0.09 0.10 0.10 0.07 0.03 0.02 0.01 0.01 0.00 0.00 0.00 0.00 0.00 0.00 0.00 0.00
0.21 0.19 0.19 0.19 0.15 0.13 0.12 0.09 0.07 0.04 0.03 0.04 0.06 0.09 0.10 0.10 0.10 0.08 0.04 0.04 0.06 0.06 0.06 0.06 0.06 0.04 0.01 0.01 0.00 0.00 0.00 0.00 0.00 0.00 0.00 0.00 0.00 0.00
0.24 0.21 0.18 0.15 0.10 0.08 0.08 0.06 0.06 0.05 0.05 0.07 0.09 0.10 0.11 0.09 0.09 0.07 0.04 0.04 0.03 0.03 0.03 0.02 0.02 0.02 0.01 0.01 0.00 0.00 0.00 0.00 0.00 0.00 0.00 0.00 0.00 0.00
0.36 0.37 0.27 0.17 0.08 0.04 0.04 0.04 0.03 0.03 0.05 0.07 0.08 0.09 0.09 0.09 0.09 0.08 0.04 0.03 0.03 0.03 0.04 0.04 0.02 0.00 0.00 0.00 0.00 0.00 0.00 0.00 0.00 0.00 0.00 0.00 0.00 0.00
0.29 0.26 0.22 0.17 0.09 0.05 0.04 0.04 0.03 0.04 0.05 0.06 0.06 0.07 0.08 0.08 0.08 0.07 0.04 0.02 0.02 0.04 0.03 0.02 0.00 0.00 0.00 0.00 0.00 0.00 0.00 0.00 0.00 0.00 0.00 0.00 0.00 0.00
0.24 0.21 0.17 0.14 0.11 0.09 0.07 0.04 0.02 0.01 0.01 0.02 0.03 0.04 0.04 0.05 0.06 0.06 0.04 0.02 0.03 0.03 0.02 0.01 0.00 0.00 0.00 0.00 0.00 0.00 0.00 0.00 0.00 0.00 0.00 0.00 0.00 0.00

GFSNE_prec_precacc24_300.txt.gz
Total_Precipitation_Accumulation
0.00 0.00 0.00 0.00 0.00 0.00 0.00 0.01 0.01 0.01 0.00 0.00 0.00 0.00 0.00 0.00 0.00 0.00 0.00 0.00 0.02 0.04 0.06 0.06 0.01 0.01 0.02 0.03 0.04 0.03 0.02 0.00 0.00 0.00 0.00 0.00 0.01 0.03
0.00 0.00 0.00 0.00 0.00 0.00 0.00 0.00 0.01 0.01 0.01 0.00 0.00 0.00 0.00 0.00 0.00 0.00 0.00 0.01 0.01 0.05 0.06 0.04 0.03 0.04 0.06 0.04 0.04 0.03 0.02 0.00 0.00 0.01 0.01 0.01 0.02 0.04
0.00 0.00 0.00 0.00 0.00 0.00 0.00 0.00 0.00 0.01 0.02 0.00 0.00 0.00 0.01 0.01 0.01 0.01 0.01 0.01 0.02 0.08 0.14 0.16 0.14 0.10 0.07 0.06 0.07 0.05 0.04 0.01 0.00 0.00 0.00 0.00 0.01 0.01
0.00 0.00 0.00 0.00 0.00 0.00 0.00 0.00 0.01 0.02 0.04 0.03 0.01 0.02 0.03 0.03 0.03 0.05 0.06 0.09 0.11 0.16 0.32 0.48 0.49 0.23 0.13 0.11 0.11 0.10 0.09 0.04 0.01 0.00 0.00 0.00 0.00 0.00
0.00 0.00 0.00 0.01 0.01 0.02 0.03 0.04 0.05 0.07 0.09 0.10 0.06 0.06 0.10 0.11 0.13 0.17 0.17 0.18 0.18 0.21 0.32 0.54 0.58 0.45 0.25 0.21 0.17 0.17 0.14 0.08 0.06 0.04 0.00 0.00 0.00 0.00
0.04 0.04 0.05 0.07 0.07 0.09 0.12 0.14 0.15 0.17 0.19 0.20 0.19 0.22 0.22 0.24 0.26 0.28 0.28 0.28 0.24 0.17 0.30 0.89 0.88 0.60 0.59 0.35 0.24 0.21 0.21 0.16 0.11 0.08 0.03 0.00 0.00 0.00
0.14 0.15 0.15 0.17 0.20 0.18 0.16 0.14 0.14 0.16 0.19 0.22 0.22 0.21 0.21 0.23 0.27 0.29 0.39 0.45 0.47 0.42 0.36 0.64 0.47 0.46 0.47 0.47 0.26 0.18 0.13 0.12 0.10 0.08 0.04 0.01 0.00 0.00
0.19 0.18 0.19 0.23 0.21 0.22 0.20 0.18 0.20 0.21 0.24 0.25 0.26 0.27 0.22 0.22 0.27 0.40 0.46 0.48 0.52 0.50 0.44 0.60 0.48 0.39 0.26 0.16 0.18 0.23 0.30 0.17 0.08 0.06 0.02 0.00 0.00 0.00
0.14 0.16 0.20 0.22 0.23 0.19 0.23 0.24 0.25 0.29 0.29 0.27 0.30 0.29 0.34 0.35 0.44 0.54 0.54 0.54 0.59 0.56 0.68 0.85 0.74 0.59 0.44 0.33 0.27 0.13 0.08 0.08 0.04 0.02 0.00 0.00 0.00 0.00
0.21 0.20 0.21 0.21 0.21 0.22 0.22 0.26 0.26 0.29 0.29 0.25 0.28 0.33 0.37 0.41 0.47 0.54 0.60 0.72 0.83 0.80 0.68 0.67 0.68 0.67 0.51 0.38 0.33 0.15 0.08 0.04 0.03 0.01 0.00 0.00 0.00 0.00
0.35 0.33 0.32 0.28 0.30 0.29 0.21 0.21 0.21 0.25 0.35 0.38 0.38 0.44 0.50 0.52 0.53 0.52 0.52 0.58 0.66 0.56 0.48 0.37 0.54 0.62 0.69 0.46 0.22 0.18 0.09 0.04 0.01 0.00 0.00 0.00 0.00 0.00
0.35 0.34 0.39 0.36 0.42 0.38 0.23 0.21 0.23 0.25 0.24 0.29 0.31 0.31 0.31 0.34 0.38 0.37 0.38 0.39 0.36 0.40 0.34 0.36 0.44 0.37 0.50 0.47 0.28 0.16 0.06 0.01 0.00 0.00 0.00 0.00 0.00 0.00
0.26 0.25 0.29 0.35 0.34 0.35 0.32 0.31 0.37 0.39 0.36 0.33 0.30 0.28 0.27 0.28 0.28 0.28 0.27 0.30 0.31 0.23 0.19 0.26 0.31 0.24 0.11 0.17 0.25 0.24 0.08 0.02 0.00 0.00 0.00 0.00 0.00 0.00
0.26 0.27 0.33 0.39 0.36 0.33 0.24 0.25 0.24 0.21 0.17 0.17 0.15 0.15 0.16 0.19 0.21 0.23 0.26 0.27 0.28 0.21 0.27 0.22 0.21 0.09 0.07 0.16 0.16 0.21 0.13 0.04 0.00 0.00 0.00 0.00 0.00 0.00
0.28 0.30 0.32 0.27 0.22 0.18 0.16 0.20 0.17 0.12 0.11 0.11 0.09 0.09 0.09 0.11 0.14 0.13 0.16 0.18 0.18 0.22 0.28 0.22 0.12 0.16 0.16 0.12 0.10 0.15 0.13 0.07 0.01 0.00 0.00 0.00 0.00 0.00
0.24 0.22 0.21 0.20 0.17 0.19 0.22 0.16 0.11 0.13 0.13 0.09 0.08 0.07 0.06 0.07 0.08 0.09 0.09 0.11 0.12 0.18 0.24 0.26 0.29 0.26 0.21 0.16 0.16 0.18 0.11 0.06 0.01 0.00 0.00 0.00 0.00 0.00
0.25 0.15 0.12 0.12 0.14 0.17 0.22 0.22 0.17 0.19 0.16 0.11 0.08 0.07 0.05 0.03 0.03 0.04 0.05 0.09 0.13 0.16 0.20 0.26 0.31 0.28 0.21 0.16 0.15 0.10 0.06 0.03 0.02 0.00 0.00 0.00 0.00 0.00
0.28 0.16 0.14 0.14 0.16 0.20 0.24 0.27 0.25 0.22 0.16 0.11 0.10 0.09 0.07 0.04 0.04 0.07 0.08 0.09 0.09 0.13 0.13 0.19 0.21 0.16 0.11 0.11 0.09 0.07 0.06 0.04 0.02 0.00 0.00 0.00 0.00 0.00
0.21 0.20 0.18 0.17 0.18 0.21 0.24 0.25 0.24 0.20 0.14 0.10 0.10 0.12 0.11 0.11 0.10 0.09 0.05 0.04 0.07 0.09 0.11 0.14 0.17 0.13 0.07 0.06 0.09 0.07 0.04 0.03 0.01 0.00 0.00 0.00 0.00 0.00
0.23 0.22 0.22 0.22 0.22 0.22 0.24 0.24 0.22 0.18 0.14 0.11 0.11 0.12 0.11 0.10 0.09 0.08 0.05 0.05 0.04 0.06 0.07 0.08 0.09 0.09 0.08 0.06 0.06 0.07 0.03 0.01 0.00 0.00 0.00 0.00 0.00 0.00
0.35 0.36 0.33 0.30 0.26 0.24 0.26 0.25 0.20 0.16 0.12 0.10 0.11 0.09 0.09 0.09 0.10 0.08 0.04 0.04 0.04 0.05 0.07 0.09 0.09 0.07 0.07 0.04 0.02 0.03 0.01 0.00 0.00 0.00 0.00 0.00 0.00 0.00
0.27 0.26 0.26 0.26 0.22 0.22 0.24 0.23 0.18 0.14 0.10 0.09 0.08 0.07 0.08 0.08 0.08 0.07 0.04 0.03 0.04 0.05 0.05 0.04 0.01 0.01 0.01 0.01 0.01 0.01 0.01 0.00 0.00 0.00 0.00 0.00 0.00 0.00
0.23 0.22 0.22 0.23 0.21 0.21 0.21 0.19 0.14 0.09 0.06 0.04 0.04 0.04 0.04 0.05 0.06 0.06 0.05 0.03 0.04 0.05 0.04 0.02 0.00 0.00 0.00 0.00 0.00 0.00 0.00 0.00 0.00 0.00 0.00 0.00 0.00 0.00

GFSNE_prec_precacc24_303.txt.gz
Total_Precipitation_Accumulation
0.00 0.00 0.00 0.00 0.00 0.00 0.00 0.01 0.02 0.01 0.00 0.00 0.00 0.00 0.00 0.00 0.00 0.00 0.00 0.00 0.02 0.03 0.06 0.07 0.03 0.03 0.04 0.06 0.06 0.06 0.08 0.08 0.04 0.01 0.00 0.00 0.01 0.03
0.00 0.00 0.00 0.00 0.00 0.00 0.00 0.00 0.01 0.01 0.01 0.00 0.00 0.00 0.00 0.00 0.00 0.00 0.00 0.01 0.01 0.05 0.07 0.05 0.05 0.06 0.08 0.06 0.05 0.06 0.07 0.08 0.07 0.03 0.01 0.01 0.02 0.03
0.00 0.00 0.00 0.00 0.00 0.00 0.00 0.00 0.00 0.01 0.02 0.00 0.00 0.00 0.01 0.01 0.01 0.01 0.01 0.01 0.01 0.05 0.11 0.14 0.15 0.11 0.09 0.09 0.11 0.12 0.13 0.15 0.18 0.10 0.03 0.01 0.01 0.01
0.00 0.00 0.00 0.00 0.00 0.00 0.00 0.00 0.01 0.02 0.04 0.03 0.01 0.02 0.03 0.03 0.03 0.04 0.05 0.07 0.06 0.09 0.22 0.44 0.50 0.26 0.20 0.18 0.18 0.20 0.22 0.22 0.27 0.16 0.06 0.02 0.00 0.01
0.00 0.00 0.00 0.01 0.01 0.02 0.03 0.04 0.05 0.07 0.09 0.10 0.06 0.05 0.09 0.11 0.13 0.14 0.13 0.13 0.13 0.17 0.21 0.43 0.61 0.51 0.40 0.37 0.35 0.36 0.34 0.43 0.45 0.25 0.09 0.03 0.01 0.00
0.04 0.04 0.05 0.07 0.07 0.09 0.12 0.13 0.14 0.17 0.19 0.20 0.19 0.18 0.18 0.18 0.19 0.19 0.19 0.19 0.19 0.17 0.25 0.74 0.85 0.75 0.77 0.50 0.37 0.35 0.37 0.47 0.51 0.31 0.19 0.07 0.02 0.00
0.14 0.15 0.15 0.17 0.20 0.18 0.16 0.14 0.14 0.16 0.18 0.21 0.21 0.18 0.18 0.17 0.21 0.22 0.29 0.35 0.43 0.40 0.38 0.64 0.50 0.53 0.57 0.56 0.34 0.26 0.24 0.37 0.39 0.24 0.13 0.08 0.04 0.01
0.19 0.18 0.19 0.23 0.21 0.22 0.19 0.18 0.19 0.21 0.23 0.24 0.24 0.24 0.18 0.17 0.21 0.33 0.38 0.43 0.50 0.47 0.44 0.61 0.54 0.50 0.38 0.29 0.28 0.32 0.43 0.31 0.22 0.18 0.11 0.07 0.03 0.01
0.14 0.16 0.20 0.22 0.23 0.19 0.22 0.24 0.24 0.28 0.30 0.27 0.28 0.28 0.30 0.33 0.39 0.47 0.50 0.51 0.58 0.58 0.73 0.96 0.88 0.73 0.60 0.45 0.36 0.21 0.17 0.28 0.20 0.09 0.06 0.03 0.00 0.00
0.21 0.20 0.21 0.21 0.21 0.22 0.22 0.25 0.26 0.28 0.28 0.25 0.28 0.32 0.34 0.36 0.42 0.49 0.56 0.68 0.78 0.79 0.71 0.77 0.79 0.75 0.62 0.50 0.46 0.26 0.17 0.09 0.07 0.07 0.02 0.00 0.00 0.00
0.35 0.33 0.32 0.28 0.29 0.28 0.21 0.21 0.21 0.24 0.33 0.37 0.37 0.41 0.46 0.46 0.47 0.47 0.49 0.55 0.65 0.58 0.54 0.42 0.62 0.70 0.78 0.53 0.26 0.24 0.14 0.07 0.02 0.01 0.01 0.00 0.00 0.00
0.35 0.34 0.39 0.36 0.41 0.36 0.23 0.21 0.23 0.24 0.23 0.26 0.27 0.28 0.28 0.32 0.36 0.33 0.34 0.39 0.40 0.43 0.38 0.39 0.49 0.41 0.55 0.54 0.32 0.18 0.08 0.03 0.01 0.01 0.01 0.00 0.00 0.00
0.26 0.25 0.29 0.34 0.33 0.33 0.31 0.31 0.36 0.38 0.34 0.30 0.26 0.24 0.22 0.24 0.25 0.24 0.23 0.29 0.37 0.31 0.24 0.29 0.34 0.25 0.11 0.18 0.27 0.27 0.09 0.03 0.00 0.00 0.00 0.00 0.00 0.00
0.26 0.27 0.33 0.38 0.34 0.31 0.24 0.23 0.22 0.21 0.17 0.16 0.14 0.13 0.15 0.19 0.21 0.23 0.27 0.31 0.32 0.25 0.33 0.26 0.23 0.09 0.07 0.16 0.17 0.24 0.16 0.07 0.01 0.00 0.00 0.00 0.00 0.00
0.28 0.30 0.32 0.26 0.20 0.16 0.15 0.18 0.15 0.11 0.11 0.12 0.10 0.12 0.13 0.15 0.17 0.15 0.17 0.19 0.19 0.23 0.30 0.24 0.13 0.16 0.16 0.12 0.11 0.16 0.16 0.13 0.03 0.00 0.00 0.00 0.00 0.00
0.24 0.22 0.20 0.18 0.16 0.16 0.20 0.15 0.09 0.12 0.14 0.13 0.14 0.13 0.12 0.13 0.12 0.10 0.09 0.11 0.12 0.18 0.25 0.28 0.30 0.27 0.21 0.18 0.17 0.21 0.14 0.08 0.03 0.00 0.00 0.00 0.00 0.00
0.25 0.15 0.12 0.11 0.12 0.16 0.20 0.20 0.17 0.20 0.20 0.17 0.16 0.13 0.11 0.09 0.07 0.05 0.05 0.10 0.13 0.17 0.22 0.30 0.34 0.30 0.24 0.20 0.19 0.13 0.08 0.04 0.03 0.01 0.00 0.00 0.00 0.00
0.28 0.16 0.13 0.12 0.15 0.19 0.23 0.25 0.25 0.23 0.20 0.19 0.17 0.14 0.11 0.08 0.06 0.07 0.08 0.09 0.09 0.13 0.15 0.22 0.25 0.19 0.15 0.15 0.12 0.10 0.09 0.06 0.05 0.01 0.00 0.00 0.00 0.00
0.21 0.20 0.18 0.16 0.17 0.20 0.23 0.25 0.24 0.21 0.19 0.17 0.15 0.15 0.14 0.14 0.12 0.09 0.05 0.05 0.07 0.09 0.12 0.16 0.21 0.16 0.09 0.08 0.13 0.11 0.06 0.06 0.04 0.02 0.00 0.00 0.00 0.00
0.23 0.23 0.22 0.22 0.22 0.22 0.24 0.25 0.24 0.21 0.17 0.15 0.14 0.14 0.13 0.11 0.10 0.08 0.05 0.05 0.04 0.06 0.08 0.10 0.12 0.12 0.10 0.08 0.09 0.13 0.08 0.03 0.01 0.01 0.00 0.00 0.00 0.00
0.35 0.36 0.33 0.30 0.26 0.25 0.27 0.27 0.24 0.21 0.16 0.14 0.14 0.13 0.12 0.10 0.10 0.08 0.05 0.05 0.04 0.05 0.08 0.11 0.12 0.10 0.10 0.07 0.05 0.07 0.06 0.03 0.01 0.00 0.00 0.00 0.00 0.00
0.27 0.26 0.26 0.26 0.24 0.24 0.27 0.27 0.24 0.19 0.15 0.13 0.12 0.11 0.10 0.09 0.08 0.07 0.05 0.03 0.04 0.05 0.06 0.06 0.05 0.04 0.03 0.03 0.04 0.04 0.05 0.02 0.00 0.00 0.00 0.00 0.00 0.00
0.23 0.22 0.22 0.24 0.23 0.24 0.26 0.26 0.20 0.14 0.10 0.09 0.08 0.07 0.05 0.05 0.06 0.07 0.05 0.03 0.04 0.05 0.05 0.04 0.03 0.03 0.03 0.04 0.03 0.03 0.03 0.02 0.01 0.00 0.00 0.00 0.00 0.00

GFSNE_prec_precacc24_306.txt.gz
Total_Precipitation_Accumulation
0.00 0.00 0.00 0.00 0.00 0.00 0.00 0.01 0.02 0.01 0.00 0.00 0.00 0.00 0.00 0.00 0.00 0.00 0.00 0.00 0.00 0.01 0.02 0.05 0.03 0.04 0.05 0.07 0.08 0.08 0.10 0.10 0.11 0.14 0.15 0.14 0.06 0.05
0.00 0.00 0.00 0.00 0.00 0.00 0.00 0.00 0.01 0.01 0.01 0.00 0.00 0.00 0.00 0.00 0.00 0.00 0.00 0.00 0.00 0.02 0.05 0.04 0.05 0.06 0.08 0.07 0.07 0.08 0.09 0.10 0.11 0.16 0.19 0.25 0.14 0.06
0.00 0.00 0.00 0.00 0.00 0.00 0.00 0.00 0.00 0.01 0.02 0.00 0.00 0.00 0.01 0.01 0.01 0.01 0.01 0.01 0.00 0.02 0.08 0.11 0.12 0.11 0.10 0.10 0.13 0.14 0.16 0.19 0.27 0.38 0.47 0.51 0.28 0.05
0.00 0.00 0.00 0.00 0.00 0.00 0.00 0.00 0.01 0.02 0.04 0.03 0.01 0.02 0.03 0.03 0.03 0.04 0.03 0.03 0.03 0.06 0.12 0.29 0.40 0.24 0.19 0.19 0.20 0.23 0.27 0.29 0.37 0.45 0.59 0.64 0.23 0.08
0.00 0.00 0.00 0.01 0.01 0.02 0.03 0.04 0.05 0.07 0.09 0.10 0.06 0.05 0.09 0.11 0.13 0.14 0.13 0.11 0.08 0.13 0.16 0.24 0.52 0.50 0.40 0.40 0.42 0.47 0.45 0.51 0.62 0.71 0.60 0.46 0.18 0.12
0.03 0.04 0.05 0.06 0.07 0.09 0.12 0.13 0.14 0.16 0.18 0.19 0.18 0.18 0.17 0.17 0.18 0.18 0.16 0.13 0.11 0.11 0.21 0.37 0.66 0.71 0.78 0.53 0.43 0.41 0.40 0.53 0.69 0.72 0.60 0.47 0.27 0.10
0.08 0.10 0.12 0.16 0.20 0.18 0.16 0.14 0.14 0.16 0.18 0.21 0.21 0.18 0.18 0.17 0.19 0.19 0.25 0.28 0.31 0.31 0.33 0.50 0.46 0.48 0.59 0.61 0.39 0.30 0.29 0.46 0.55 0.42 0.39 0.38 0.23 0.07
0.12 0.13 0.15 0.23 0.21 0.22 0.19 0.18 0.19 0.21 0.23 0.24 0.23 0.24 0.18 0.17 0.20 0.30 0.34 0.37 0.43 0.37 0.39 0.54 0.47 0.47 0.40 0.33 0.37 0.39 0.53 0.45 0.37 0.32 0.26 0.18 0.12 0.05
0.06 0.12 0.18 0.22 0.23 0.19 0.22 0.24 0.24 0.28 0.29 0.27 0.28 0.27 0.29 0.31 0.34 0.39 0.44 0.45 0.52 0.51 0.64 0.84 0.80 0.70 0.62 0.49 0.40 0.28 0.24 0.35 0.29 0.18 0.15 0.16 0.09 0.03
0.14 0.16 0.21 0.21 0.21 0.22 0.22 0.25 0.26 0.28 0.28 0.25 0.28 0.32 0.34 0.35 0.38 0.44 0.48 0.59 0.64 0.66 0.65 0.72 0.73 0.74 0.65 0.59 0.55 0.33 0.26 0.15 0.10 0.13 0.11 0.04 0.02 0.00
0.27 0.31 0.32 0.28 0.29 0.28 0.21 0.21 0.21 0.24 0.33 0.36 0.36 0.41 0.46 0.46 0.44 0.42 0.42 0.49 0.55 0.48 0.46 0.37 0.58 0.72 0.84 0.61 0.33 0.33 0.22 0.11 0.06 0.09 0.05 0.01 0.00 0.00
0.31 0.33 0.39 0.36 0.41 0.35 0.23 0.21 0.22 0.23 0.23 0.26 0.27 0.28 0.27 0.28 0.33 0.31 0.32 0.40 0.41 0.41 0.36 0.37 0.47 0.42 0.59 0.64 0.40 0.23 0.10 0.05 0.03 0.03 0.01 0.01 0.00 0.00
0.25 0.25 0.29 0.34 0.33 0.32 0.31 0.31 0.36 0.38 0.34 0.30 0.25 0.21 0.18 0.18 0.21 0.22 0.24 0.31 0.41 0.38 0.30 0.32 0.36 0.27 0.13 0.22 0.31 0.31 0.12 0.05 0.02 0.02 0.01 0.00 0.00 0.00
0.26 0.27 0.33 0.38 0.34 0.31 0.24 0.22 0.22 0.21 0.16 0.14 0.12 0.09 0.10 0.14 0.16 0.19 0.24 0.30 0.40 0.37 0.41 0.34 0.31 0.13 0.09 0.17 0.19 0.28 0.20 0.10 0.04 0.01 0.00 0.00 0.01 0.00
0.28 0.30 0.32 0.26 0.20 0.15 0.14 0.17 0.15 0.10 0.09 0.10 0.08 0.09 0.09 0.10 0.13 0.14 0.19 0.25 0.27 0.31 0.37 0.31 0.19 0.22 0.17 0.12 0.11 0.18 0.19 0.18 0.06 0.01 0.01 0.00 0.00 0.00
0.24 0.22 0.20 0.18 0.15 0.14 0.18 0.15 0.08 0.10 0.12 0.11 0.11 0.10 0.11 0.13 0.14 0.14 0.14 0.16 0.16 0.21 0.27 0.31 0.32 0.28 0.23 0.18 0.18 0.23 0.15 0.10 0.06 0.02 0.01 0.01 0.00 0.00
0.25 0.15 0.12 0.11 0.12 0.14 0.19 0.19 0.15 0.17 0.17 0.14 0.14 0.13 0.14 0.13 0.10 0.09 0.10 0.12 0.14 0.17 0.23 0.33 0.38 0.33 0.27 0.22 0.21 0.15 0.09 0.05 0.05 0.02 0.00 0.00 0.00 0.00
0.28 0.16 0.13 0.12 0.15 0.18 0.21 0.24 0.24 0.21 0.17 0.17 0.15 0.13 0.12 0.10 0.09 0.11 0.11 0.10 0.10 0.14 0.16 0.26 0.29 0.23 0.17 0.18 0.14 0.13 0.11 0.08 0.08 0.03 0.00 0.00 0.00 0.00
0.21 0.20 0.18 0.16 0.16 0.19 0.22 0.24 0.23 0.20 0.17 0.16 0.14 0.13 0.12 0.12 0.12 0.12 0.07 0.05 0.08 0.10 0.14 0.18 0.24 0.19 0.12 0.10 0.16 0.14 0.08 0.09 0.06 0.05 0.02 0.00 0.00 0.00
0.23 0.22 0.22 0.22 0.21 0.21 0.23 0.24 0.23 0.21 0.17 0.15 0.13 0.12 0.11 0.10 0.10 0.10 0.06 0.05 0.05 0.07 0.09 0.12 0.14 0.15 0.14 0.11 0.11 0.18 0.13 0.06 0.04 0.03 0.02 0.00 0.00 0.00
0.34 0.36 0.33 0.30 0.26 0.25 0.27 0.27 0.24 0.22 0.17 0.14 0.13 0.11 0.11 0.10 0.10 0.09 0.05 0.05 0.05 0.06 0.08 0.12 0.15 0.12 0.12 0.09 0.06 0.11 0.12 0.08 0.03 0.01 0.00 0.00 0.00 0.00
0.27 0.26 0.25 0.26 0.24 0.24 0.28 0.28 0.26 0.21 0.16 0.12 0.11 0.12 0.11 0.10 0.09 0.08 0.05 0.04 0.05 0.06 0.07 0.08 0.07 0.07 0.06 0.04 0.06 0.07 0.09 0.07 0.03 0.01 0.00 0.00 0.00 0.00
0.23 0.22 0.22 0.24 0.23 0.25 0.27 0.28 0.24 0.18 0.13 0.11 0.11 0.10 0.08 0.07 0.07 0.07 0.05 0.03 0.04 0.06 0.06 0.05 0.05 0.05 0.06 0.07 0.06 0.07 0.06 0.05 0.04 0.02 0.00 0.00 0.00 0.00